Location: Gensac
(43.2177°N, 1.1313°E)
Time: 16:58:04
(UTC+00:00)

Cosmos 841 Rocket - Pass Details

Date: 08 December 2025
Orbit: 743 x 767 km, 74.0° (Epoch: 22 January)

Event Time Altitude Azimuth Distance (km) Brightness Sun altitude
Rises 05:13:39 0° 207° (SSW) 3,205 6.6 -21.3°
Reaches altitude 10° 05:16:01 10° 210° (SSW) 2,287 5.8 -20.9°
Maximum altitude 05:21:11 66° 292° (WNW) 834 3.4 -20.0°
Drops below altitude 10° 05:26:24 10° 15° (NNE) 2,313 6.0 -19.0°
Sets 05:28:49 0° 18° (NNE) 3,245 6.8 -18.6°
